www.pogodaiklimat.ru

Погода и климат >> Архив погоды >> Бельгия >> Дурб


ПОГОДА в Дурбе

  • Прогноз погоды в Дурбе
  • Монитор погоды в Дурбе

АРХИВ ПОГОДЫ в Дурбе

Время (UTC), дата Ветер
(напр.,м/с)
 
Видим.   Явления Облачность Т
(С)
Тd
(С)
f
(%)
Тe
(С)
Тes
(С)
Комфортность P
(гПа)
Po
(гПа)
Тmin
(С)
Tmax
(С)
R
(мм)
R24
(мм)
S
(см)
13 14.07 С 3 н/о н/о +17.8 +11.2 65 +18 +18 1019.1 991.4 135
14 14.07 н/о н/о +17.7 +11.5 67 1019.1 991.4 70
15 14.07 С 3 н/о н/о +18.3 +11.2 63 +19 +19 1018.8 991.1 123
16 14.07 С 3 н/о н/о +17.4 +11.5 68 +17 +17 1018.9 991.2 62
17 14.07 С 3 н/о н/о +17.0 +11.5 70 +17 +17 1019.0 991.2 36
18 14.07 С 2
{8}
н/о н/о +16.5 +11.5 72 +17 +17 1019.1 991.3 +18.8 17
19 14.07 н/о н/о +16.3 +11.8 75 1019.1 991.3 16
20 14.07 С 2 н/о н/о +15.6 +11.8 78 +16 +16 1019.3 991.4 2
21 14.07 С 2 н/о н/о +15.3 +11.7 79 +15 +15 1019.6 991.7
22 14.07 С 2 н/о н/о +14.4 +11.8 84 +14 +14 1019.6 991.6
23 14.07 С 2 н/о н/о +14.1 +12.1 88 +14 +14 1019.6 991.6
00 15.07 н/о н/о +13.8 +11.6 87 1019.6 991.5 90
01 15.07 С 3 н/о н/о +13.3 +11.6 89 +12 +12 1019.5 991.4
02 15.07 С 1 н/о н/о +12.0 +10.8 92 +12 +12 1019.5 991.2
03 15.07 В 1 н/о н/о +11.4 +10.6 95 +11 +11 1019.8 991.4
04 15.07 С 1 н/о н/о +10.0 +9.7 98 +9 +9 1019.9 991.4
05 15.07 СЗ 1 н/о н/о +10.4 +10.3 99 +10 +10 1019.9 991.5 1
06 15.07 С 2
{6}
н/о н/о +11.4 +11.2 99 +10 +10 1020.0 991.6 +9.6 18
07 15.07 С 1 н/о н/о +12.7 +11.4 92 +13 +13 1020.1 991.9 39
08 15.07 СВ 1 н/о н/о +14.1 +11.4 84 +14 +14 1019.9 991.9 62
09 15.07 С 2
{5}
н/о н/о +14.7 +9.9 73 +14 +14 1020.0 992.0 71
10 15.07 С 2 н/о н/о +15.1 +9.8 71 +15 +15 1020.0 992.0 85
11 15.07 С 2 н/о н/о +14.9 +10.5 75 +15 +15 1020.0 992.0 64
12 15.07 н/о н/о +15.6 +10.6 72 1019.9 992.0 79
13 15.07 С 2 н/о н/о +17.4 +10.5 64 +18 +18 1019.5 991.8 150
14 15.07 н/о н/о +18.7 +11.0 61 1019.2 991.6 184
15 15.07 н/о н/о +17.8 +10.4 62 1019.6 991.8 158
16 15.07 С 2 н/о н/о +17.1 +10.2 64 +17 +17 1019.4 991.6 81
17 15.07 С 2 н/о н/о +16.5 +10.4 67 +17 +17 1019.3 991.5 51
18 15.07 С 3
{8}
н/о н/о +16.0 +9.7 66 +16 +16 1019.2 991.3 +18.7 38
19 15.07 С 2 н/о н/о +15.6 +9.8 68 +16 +16 1019.4 991.4 15
20 15.07 С 2 н/о н/о +15.1 +9.6 70 +15 +15 1019.5 991.5
21 15.07 С 1 н/о н/о +13.0 +9.4 79 +13 +13 1019.9 991.7
22 15.07 С 1 н/о н/о +12.8 +9.3 79 +13 +13 1019.9 991.7
23 15.07 С 1 н/о н/о +13.3 +9.8 79 +14 +14 1019.7 991.6
00 16.07 штиль 0 н/о н/о +12.7 +9.8 83 +12 +12 1019.8 991.6 110
01 16.07 С 2 н/о н/о +13.2 +10.2 82 +12 +12 1019.6 991.5
02 16.07 н/о н/о +12.8 +10.6 86 1019.4 991.3
03 16.07 н/о н/о +12.9 +11.1 89 1019.2 991.1
04 16.07 штиль 0 н/о н/о +12.2 +10.7 91 +12 +12 1019.4 991.1
05 16.07 штиль 0 н/о н/о +12.2 +11.0 92 +12 +12 1019.4 991.1
06 16.07 СЗ 1
{3}
н/о н/о +12.9 +11.6 92 +13 +13 1019.7 991.5 +12.1 15
07 16.07 С 1 н/о н/о +14.1 +10.8 81 +14 +14 1019.6 991.6 36
08 16.07 С 1 н/о н/о +14.7 +9.4 71 +15 +15 1019.5 991.5 56
09 16.07 С 2
{3}
н/о н/о +15.8 +9.7 67 +16 +16 1019.4 991.5 97
10 16.07 СВ 2 н/о н/о +16.5 +9.7 64 +17 +17 1019.1 991.3 129
11 16.07 ЮВ 2 н/о н/о +18.3 +9.8 58 +19 +19 1018.5 990.9 242
12 16.07 СВ 2 н/о н/о +19.5 +10.3 55 +21 +21 комфорт 1017.9 990.4 248
13 16.07 С 2 н/о н/о +20.5 +11.2 55 +23 +23 комфорт 1017.5 990.2 233
14 16.07 С 2 н/о н/о +20.8 +11.6 56 +24 +24 комфорт 1017.3 989.9 214
15 16.07 С 2 н/о н/о +20.8 +11.2 54 +23 +23 комфорт 1017.1 989.7 190
16 16.07 н/о н/о +20.8 +11.6 56 1016.7 989.4 124
17 16.07 н/о н/о +20.5 +11.0 54 1016.6 989.2 97
18 16.07 С 2
{6}
н/о н/о +20.3 +11.6 57 +23 +23 комфорт 1016.6 989.2 +21.4 81
19 16.07 С 2 н/о н/о +18.6 +11.7 64 +20 +20 1016.6 989.1 32
20 16.07 С 1 н/о н/о +16.3 +11.3 72 +17 +17 1017.1 989.3 1
21 16.07 Ю 1 н/о н/о +14.1 +10.9 81 +14 +14 1017.4 989.4
22 16.07 штиль 0 н/о н/о +12.4 +10.9 91 +12 +12 1017.4 989.2
23 16.07 Ю 1 н/о н/о +11.3 +10.5 95 +11 +11 1017.4 989.2
00 17.07 штиль 0 н/о н/о +10.4 +9.9 97 +10 +10 1017.4 989.0 180
01 17.07 штиль 0 н/о н/о +9.7 +9.4 98 +9 +9 1017.3 988.8
02 17.07 штиль 0 н/о н/о +8.9 +8.7 99 +8 +8 1017.1 988.5
03 17.07 штиль 0 н/о н/о +8.3 +8.2 99 +7 +7 1016.7 988.1
04 17.07 штиль 0 н/о н/о +7.7 +7.7 100 +7 +7 1016.9 988.3
05 17.07 штиль 0 н/о н/о +7.9 +7.9 100 +7 +7 1016.6 988.0 3
06 17.07 штиль 0
{1}
н/о н/о +9.2 +9.2 100 +8 +8 1016.4 987.9 +7.5 35
07 17.07 Ю 1 н/о н/о +12.3 +11.7 96 +12 +12 1016.1 988.0 80
08 17.07 СВ 1 н/о н/о +17.0 +13.6 80 +18 +18 1015.8 988.1 123
09 17.07 С 2
{4}
н/о н/о +18.3 +12.0 67 +19 +19 1015.5 988.0 165
10 17.07 СВ 2 н/о н/о +19.9 +12.6 63 +22 +22 комфорт 1015.2 987.8 202
11 17.07 н/о н/о +21.1 +12.3 57 1014.8 987.6 230
12 17.07 С 2 н/о н/о +22.8 +11.3 48 +25 +25 комфорт 1014.1 987.0 248
13 17.07 СЗ 1 н/о н/о +23.7 +10.9 44 +25 +25 комфорт 1013.5 986.5 243
14 17.07 С 3 н/о н/о +24.3 +10.5 42 +25 +25 комфорт 1013.3 986.3 205
15 17.07 С 1 н/о н/о +24.8 +10.1 39 +26 +26 жарко 1012.9 986.0 165
16 17.07 Ю 1
{3}
н/о н/о +24.5 +9.3 38 +25 +25 комфорт 1012.3 985.4 149
17 17.07 СВ 1
{3}
н/о н/о +23.9 +9.5 40 +25 +25 комфорт 1012.0 985.0 98
18 17.07 С 1
{5}
н/о н/о +23.4 +11.7 48 +26 +26 жарко 1012.0 985.0 +25.4 45
19 17.07 С 1
{2}
н/о н/о +21.2 +11.8 55 +23 +23 комфорт 1012.1 984.9 21
20 17.07 В 1
{2}
н/о н/о +19.4 +11.7 61 +22 +22 комфорт 1012.4 985.1 1
21 17.07 В 1 н/о н/о +18.3 +11.7 65 +20 +20 1012.3 984.9
22 17.07 В 1 н/о н/о +17.1 +11.6 70 +18 +18 1012.4 984.9
23 17.07 штиль 0
{1}
н/о н/о +15.6 +12.0 79 +15 +15 1012.6 984.8
00 18.07 ЮВ 1 н/о н/о +15.5 +12.1 80 +16 +16 1012.3 984.6 202
01 18.07 штиль 0 н/о н/о +14.0 +11.7 86 +14 +14 1012.4 984.5
02 18.07 Ю 1 н/о н/о +12.8 +11.7 93 +13 +13 1012.3 984.3
03 18.07 Ю 2 н/о н/о +15.5 +12.3 81 +15 +15 1011.6 983.9
04 18.07 ЮЗ 1
{3}
н/о н/о +13.8 +11.7 87 +14 +14 1012.0 984.1
05 18.07 штиль 0 н/о н/о +13.2 +11.7 91 +13 +13 1012.2 984.3
06 18.07 ЮЗ 1
{4}
н/о н/о +15.1 +12.1 82 +16 +16 1012.0 984.3 +12.8 29
07 18.07 З 2 н/о н/о +16.3 +10.7 69 +16 +16 1012.2 984.6 67
08 18.07 З 1 н/о н/о +18.5 +12.2 67 +20 +20 1012.0 984.6 111
09 18.07 ЮЗ 2
{5}
н/о н/о +19.7 +11.3 58 +22 +22 комфорт 1011.8 984.5 123
10 18.07 ЮЗ 3 н/о н/о +22.1 +12.4 54 +25 +25 комфорт 1011.6 984.5 163
11 18.07 ЮЗ 3
{6}
н/о н/о +22.4 +13.1 56 +25 +25 комфорт 1011.6 984.5
12 18.07 ЮЗ 4 н/о н/о +23.4 +13.2 53 +27 +27 душно 1011.1 984.2 153
13 18.07 ЮЗ 5 н/о н/о +24.5 +11.4 44 +26 +26 жарко 1011.2 984.3 194
14 18.07 ЮЗ 3 н/о н/о +24.1 +10.7 43 +25 +25 комфорт 1011.3 984.3 168
15 18.07 З 3 н/о н/о +23.6 +12.5 50 +26 +26 жарко 1011.2 984.3 120
16 18.07 ЮЗ 3 н/о н/о +23.4 +12.9 52 +26 +26 жарко 1011.3 984.3 77
17 18.07 З 2 н/о н/о +23.1 +12.6 52 +26 +26 жарко 1011.2 984.2 53
18 18.07 СЗ 3
{11}
н/о н/о +21.6 +12.2 55 +24 +24 комфорт 1011.8 984.6 +24.8 38
19 18.07 СЗ 2 н/о н/о +18.6 +15.0 80 +20 +20 1012.8 985.3 5
20 18.07 З 1 н/о н/о +17.8 +15.2 85 +19 +19 1013.0 985.5
21 18.07 ЮЗ 1 н/о н/о +17.5 +15.4 87 +19 +19 1013.1 985.6
22 18.07 ЮЗ 2 н/о н/о +17.5 +15.5 88 +18 +18 1013.2 985.7
23 18.07 Ю 1 н/о н/о +16.6 +15.9 96 +17 +17 1013.3 985.7
00 19.07 Ю 1
{7}
н/о н/о +16.4 +16.0 97 +17 +17 1013.6 985.9 0.4 143
01 19.07 ЮЗ 2 н/о н/о +16.3 +16.1 99 +16 +16 1013.6 985.9
02 19.07 ЮЗ 2 н/о н/о +16.1 +15.9 99 +16 +16 1013.7 986.1
03 19.07 З 2 н/о н/о +15.2 +14.6 96 +15 +15 1014.0 986.2
04 19.07 ЮЗ 2 н/о н/о +14.1 +13.0 93 +14 +14 1014.1 986.2
05 19.07 Ю 2 н/о н/о +13.8 +13.2 96 +13 +13 1014.3 986.4 2
06 19.07 ЮЗ 2
{5}
н/о н/о +14.5 +13.4 93 +14 +14 1014.5 986.7 +13.7 0.4 20
07 19.07 ЮЗ 2 н/о н/о +16.0 +13.5 85 +16 +16 1014.9 987.2 47
08 19.07 ЮЗ 3 н/о н/о +17.9 +12.9 73 +18 +18 1015.0 987.5 100
09 19.07 ЮЗ 3
{7}
н/о н/о +19.0 +13.0 68 +20 +20 1014.9 987.5 107
10 19.07 Ю 3 н/о н/о +19.9 +12.7 63 +22 +22 комфорт 1014.8 987.5 139
11 19.07 ЮЗ 3 н/о н/о +21.9 +12.6 56 +24 +24 комфорт 1014.4 987.2 189
12 19.07 ЮЗ 4 н/о н/о +21.8 +12.6 56 +24 +24 комфорт 1014.2 987.0 172
13 19.07 ЮЗ 3 н/о н/о +23.3 +13.1 53 +26 +26 жарко 1014.0 986.9 188
14 19.07 Ю 4 н/о н/о +23.1 +13.0 53 +26 +26 жарко 1013.7 986.7 145
15 19.07 ЮЗ 3 н/о н/о +23.7 +13.2 52 +26 +26 жарко 1013.4 986.4 126
16 19.07 Ю 3 н/о н/о +24.2 +13.8 52 +26 +26 жарко 1012.9 986.0 108
17 19.07 Ю 3 н/о н/о +23.4 +14.0 56 +27 +27 душно 1012.9 985.9 91
18 19.07 Ю 2
{9}
н/о н/о +23.0 +14.1 57 +26 +26 жарко 1012.8 985.8 +24.2 46
19 19.07 ЮВ 1 н/о н/о +22.1 +14.3 61 +25 +25 комфорт 1012.7 985.6 22
20 19.07 ЮВ 1 н/о н/о +20.1 +14.6 71 +24 +24 комфорт 1012.9 985.6 1
21 19.07 В 1 н/о н/о +18.3 +14.4 78 +20 +20 1012.9 985.4
22 19.07 ЮВ 1 н/о н/о +17.9 +14.3 79 +19 +19 1012.5 985.1
23 19.07 Ю 1 н/о н/о +17.2 +14.1 82 +18 +18 1012.3 984.8
00 20.07 ЮВ 2 н/о н/о +18.6 +14.3 76 +20 +20 1011.6 984.2 150
01 20.07 ЮВ 3 н/о н/о +19.0 +14.2 74 +20 +20 1011.2 983.8
02 20.07 ЮВ 3 н/о н/о +18.4 +14.3 77 +19 +19 1010.9 983.6
03 20.07 ЮВ 2 н/о н/о +18.5 +14.2 76 +20 +20 1010.7 983.3
05 20.07 Ю 4 н/о н/о +18.5 +14.6 78 +19 +19 1010.1 982.7 5
06 20.07 Ю 3
{8}
н/о н/о +20.0 +14.6 71 +22 +22 комфорт 1009.9 982.7 +17.2 30
07 20.07 Ю 4 н/о н/о +22.2 +15.0 64 +26 +26 душно 1009.7 982.7 70
08 20.07 Ю 4 н/о н/о +23.2 +15.1 60 +27 +27 душно 1009.6 982.6 82
09 20.07 Ю 4
{8}
н/о н/о +23.8 +15.2 59 +27 +27 жарко 1009.2 982.4 76
10 20.07 Ю 6 н/о н/о +26.1 +15.5 52 +29 +29 жарко 1009.5 982.9 132
11 20.07 Ю 6 н/о н/о +25.9 +15.6 53 +29 +29 душно 1009.5 982.9 157
12 20.07 Ю 7 н/о н/о +25.8 +14.9 51 +29 +29 душно 1010.0 983.3 115
13 20.07 ЮЗ 5 н/о н/о +27.3 +15.4 48 +30 +30 душно 1009.5 983.0 127
14 20.07 Ю 6 н/о н/о +27.8 +14.2 43 +30 +30 жарко 1009.6 983.0 163
15 20.07 З 4 н/о н/о +20.1 +17.0 82 +23 +23 комфорт 1011.8 984.5 69
17 20.07 ЮЗ 3 н/о н/о +23.6 +16.6 65 +27 +27 жарко 1011.8 984.9 98
18 20.07 З 4
{15}
н/о н/о +24.0 +15.3 58 +27 +27 жарко 1012.0 985.1 +27.8 73
19 20.07 З 2 н/о н/о +22.6 +15.1 63 +26 +26 жарко 1012.7 985.6 28
20 20.07 З 2 н/о н/о +21.7 +15.6 68 +25 +25 комфорт 1013.8 986.6
21 20.07 ЮЗ 2 н/о н/о +19.7 +15.9 79 +22 +22 комфорт 1014.7 987.4
22 20.07 З 2 н/о н/о +18.6 +15.0 80 +20 +20 1015.7 988.2
23 20.07 З 2 н/о н/о +17.7 +14.2 80 +18 +18 1016.5 988.8
00 21.07 З 2 н/о н/о +16.6 +13.9 84 +17 +17 1016.9 989.2 138
01 21.07 ЮЗ 1 н/о н/о +15.2 +13.6 90 +16 +16 1017.4 989.5
02 21.07 З 2 н/о н/о +14.4 +13.4 94 +14 +14 1017.8 989.8
03 21.07 ЮЗ 2 н/о н/о +14.0 +13.2 95 +13 +13 1018.2 990.1
05 21.07 З 2 н/о н/о +13.6 +13.1 97 +13 +13 1019.4 991.3 3
06 21.07 ЮЗ 2
{5}
н/о н/о +14.4 +13.5 94 +14 +14 1020.0 991.9 +13.1 29
07 21.07 З 2 н/о н/о +15.2 +14.1 93 +15 +15 1020.6 992.6 28
08 21.07 ЮЗ 3 н/о н/о +15.9 +14.2 90 +15 +15 1021.1 993.2 61
09 21.07 ЮЗ 2
{5}
н/о н/о +19.2 +15.3 78 +21 +21 комфорт 1021.2 993.6 148
10 21.07 СЗ 2 н/о н/о +20.4 +14.2 68 +24 +24 комфорт 1021.3 993.8 171
11 21.07 ЮЗ 3 н/о н/о +22.5 +13.0 55 +25 +25 комфорт 1021.3 994.1 235
12 21.07 З 2 н/о н/о +22.6 +12.7 54 +25 +25 комфорт 1021.7 994.3 154

 

Местоположение метеостанции Дурб (Бельгия): широта 50.10 долгота 4.60 высота над уровнем моря 231 м.

В архиве по умолчанию представлена погода в Дурбе за последнюю неделю. Архивные данные за месяц целиком и за предыдущие месяцы, начиная с января 2011 года, Вы можете получить, выбрав интересующий диапазон дат из раскрывающегося списка и нажав кнопку "Ввод!".


*Определитесь, кто Вы:
робот инопланетянин человек

Внимание! Время в таблицах - всемирное. Для получения местного времени необходимо прибавить поправку, которая равна 1 ч.

Смотрите также архив погоды в соседних городах и на ближайших метеорологических станциях:

Погода во Флорене (Бельгия) (15 км)
Погода в Чарвилле (Франция) (36 км)
Погода в Шарлеруа (Бельгия) (43 км)
Погода в Гумане (Бельгия) (48 км)
Погода в Сент-Губерте (Бельгия) (58 км)
Погода в Эрнаже (Бельгия) (64 км)
Погода в Бовешене (Бельгия) (73 км)
Погода в Шьевре (Бельгия) (76 км)
Погода в Уккеле (Бельгия) (80 км)
Погода в Бьерсете (Бельгия) (86 км)

Пояснения к столбцам:

Ветер - указаны скорость ветра в м/с - средняя за 10 мин, порывы в срок и между сроками (в фигурных скобках) и направление, откуда дует ветер: С - северный, СВ - северо-восточный, В - восточный, ЮВ - юго-восточный, Ю - южный, ЮЗ - юго-западный, З - западный, СЗ - северо-западный.
Видимость - горизонтальная дальность видимости в метрах или километрах. При видимости от 1 до 10 км при отсутствии осадков обычно наблюдается дымка, при ухудшении видимости до 1 км и менее - туман. В сухую погоду видимость может ухудшаться дымом, пылью или мглою.
Явления - указаны атмосферные явления, наблюдавшиеся в срок или в последний час перед сроком; фигурными скобками обозначены явления, наблюдавшиеся между сроками (за 1-3 часа до срока); квадратными скобками обозначены град или гололедные отложения с указанием их диаметра в мм.
Облачность - указаны через наклонную черту общая и нижняя облачность в баллах и высота нижней границы облаков в метрах; квадратными скобками обозначены формы облаков: Ci - перистые, Cs - перисто-слоистые, Cc - перисто-кучевые, Ac - высококучевые, As - высокослоистые, Sc - слоисто-кучевые, Ns - слоисто-дождевые, Cu - кучевые, Cb - кучево-дождевые. Подробнее классификацию облаков см. в Атласе облаков (PDF).
T - Температура воздуха - температура, измеренная на высоте 2 м над землей.
Td - Температура точки росы - температура, при понижении до которой содержащийся в воздухе водяной пар достигнет насыщения.
f - Относительная влажность воздуха - влажноcть воздуха, измеренная на высоте 2 м над землей.
Te - Эффективная температура - температура, которую ощущает одетый по сезону человек в тени. Характеристика душности погоды. При расчете учитывается влияние влажности воздуха и скорости ветра на теплоощущения человека.
Tes - Эффективная температура на солнце - температура, которую ощущает человек, с поправкой на солнечный нагрев. Характеристика знойности погоды. Зависит от высоты солнца над горизонтом, облачности и скорости ветра. Ночью, в пасмурную погоду, а также при ветре 12 м/с и более поправка равна нулю.
P - Атмосферное давление - приведенное к уровню моря атмосферное давление.
Po - Атмосферное давление - измеренное на уровне метеостанции атмосферное давление.
Tmin - Минимальная температура - минимум температуры воздуха на высоте 2 м над землей.
Tmax - Максимальная температура - максимум температуры воздуха на высоте 2 м над землей.
R - Количество осадков - Количество выпавших осадков за период времени, мм. При наведении курсора мыши на число - период времени, за который выпало указанное количество осадков.
R24 - Количество осадков - Количество выпавших осадков за 24 часа, мм.
S - Снежный покров - Высота снежного покрова, см. При наведении курсора мыши на число - состояние снежного покрова и степень покрытия местности в баллах.